Lexington, KY

12:54 PM EDT on May 26, 2018 (GMT -0400)
Blue Grass

Weather History for KLEX - January, 2012

Change the Weather History Date:

Tuesday, January 17, 2012

  Actual Average Record
Temperature  
Mean Temperature 46 °F 33 °F  
Max Temperature 59 °F 41 °F 67 °F (1952)
Min Temperature 33 °F 25 °F -13 °F (1982)
Degree Days  
Heating Degree Days 19 32  
Month to date heating degree days 493 544  
Since 1 July heating degree days 2090 2332  
Cooling Degree Days 0 0  
Month to date cooling degree days 0 0  
Year to date cooling degree days 0 0  
Moisture  
Dew Point 42 °F    
Average Humidity 70    
Maximum Humidity 86    
Minimum Humidity 54    
Precipitation  
Precipitation 1.02 in 0.10 in 1.58 in (1937)
Month to date precipitation 2.20 1.75  
Year to date precipitation 2.20 1.75  
Snow  
Snow 0.00 in 0.10 in 10.00 in (1994)
Month to date snowfall 1.1 2.0  
Since 1 July snowfall 1.1 4.8  
Snow Depth 0.00 in    
Sea Level Pressure  
Sea Level Pressure 29.89 in    
Wind  
Wind Speed 19 mph (WSW)    
Max Wind Speed 31 mph    
Max Gust Speed 45 mph    
Visibility 9 miles    
Events Fog , Rain , Thunderstorm    
T = Trace of Precipitation, MM = Missing Value Source: NWS Daily Summary

Daily Weather History Graph

Daily Weather History Graph

Search for Another Location

Airport or City:

Astronomy

Jan. 17, 2012 Rise Set
Actual Time 7:52 AM EST 5:44 PM EST
Civil Twilight 7:24 AM EST 6:13 PM EST
Nautical Twilight 6:51 AM EST 6:45 PM EST
Astronomical Twilight 6:20 AM EST 7:16 PM EST
Moon 2:12 AM EST (1/17) 12:36 PM EST (1/17)
Length of Visible Light 10h 49m
Length of Day
9h 51m
Waning Crescent, 35% of the Moon is Illuminated
Jan 17
Waning Crescent
Jan 23
New
Jan 30
First Quarter
Feb 7
Full
Feb 14
Last Quarter

Hourly Weather History & Observations

Time (EST) Temp. Windchill Dew Point Humidity Pressure Visibility Wind Dir Wind Speed Gust Speed Precip Events Conditions
12:54 AM 53.6 °F - 39.2 °F 58% 29.95 in 10.0 mi SSW 21.9 mph 28.8 mph N/A   Overcast
1:54 AM 50.0 °F - 44.6 °F 82% 29.94 in 5.0 mi South 19.6 mph - N/A Rain Rain
2:54 AM 51.1 °F - 42.1 °F 71% 29.91 in 10.0 mi South 16.1 mph - 0.04 in Rain Light Rain
3:54 AM 53.1 °F - 41.0 °F 64% 29.88 in 10.0 mi South 21.9 mph 27.6 mph 0.00 in   Overcast
4:54 AM 51.8 °F - 42.8 °F 71% 29.85 in 9.0 mi South 20.7 mph 29.9 mph N/A Rain Light Rain
5:54 AM 52.0 °F - 44.1 °F 74% 29.85 in 10.0 mi South 15.0 mph - 0.02 in   Overcast
6:44 AM 53.6 °F - 44.6 °F 72% 29.83 in 10.0 mi South 17.3 mph - N/A   Overcast
6:54 AM 53.6 °F - 46.4 °F 77% 29.83 in 10.0 mi SSW 17.3 mph 26.5 mph N/A Rain Light Rain
7:54 AM 55.9 °F - 48.9 °F 77% 29.81 in 10.0 mi SSW 25.3 mph 33.4 mph 0.00 in   Overcast
8:54 AM 55.9 °F - 50.0 °F 80% 29.82 in 10.0 mi SSW 18.4 mph 31.1 mph 0.01 in Rain Light Rain
9:54 AM 57.0 °F - 52.0 °F 83% 29.81 in 10.0 mi SSW 24.2 mph 35.7 mph 0.05 in   Overcast
10:54 AM 57.9 °F - 53.1 °F 84% 29.79 in 10.0 mi SSW 20.7 mph 33.4 mph 0.01 in   Overcast
11:54 AM 57.9 °F - 55.0 °F 90% 29.74 in 10.0 mi SSW 23.0 mph 35.7 mph 0.01 in Rain Light Rain
12:29 PM 55.4 °F - 51.8 °F 88% 29.79 in 2.0 mi WNW 26.5 mph 36.8 mph 0.06 in Rain Heavy Rain
12:34 PM 51.8 °F - 50.0 °F 94% 29.78 in 0.8 mi West 24.2 mph 36.8 mph 0.14 in Rain Heavy Rain
12:44 PM 53.6 °F - 51.8 °F 94% 29.76 in 0.5 mi West 28.8 mph 44.9 mph 0.33 in Fog , Rain , Thunderstorm Heavy Thunderstorms and Rain
12:54 PM 53.1 °F - 51.1 °F 93% 29.74 in 0.5 mi West 24.2 mph 36.8 mph 0.68 in Fog , Rain , Thunderstorm Heavy Thunderstorms and Rain
12:59 PM 53.6 °F - 51.8 °F 94% 29.74 in 2.0 mi WSW 23.0 mph 36.8 mph 0.08 in Rain , Thunderstorm Thunderstorms and Rain
1:15 PM 57.2 °F - 51.8 °F 82% 29.74 in 7.0 mi WSW 21.9 mph 35.7 mph 0.12 in Rain Rain
1:41 PM 53.6 °F - 51.8 °F 94% 29.76 in 10.0 mi West 12.7 mph 28.8 mph 0.13 in Rain Light Rain
1:49 PM 55.4 °F - 51.8 °F 88% 29.75 in 10.0 mi West 16.1 mph 23.0 mph 0.13 in   Overcast
1:54 PM 55.0 °F - 51.1 °F 86% 29.75 in 10.0 mi West 19.6 mph - 0.13 in   Overcast
2:54 PM 55.4 °F - 48.2 °F 77% 29.76 in 10.0 mi West 19.6 mph 32.2 mph N/A   Mostly Cloudy
3:52 PM 51.8 °F - 42.8 °F 71% 29.82 in 10.0 mi WNW 17.3 mph 33.4 mph N/A   Mostly Cloudy
3:54 PM 52.0 °F - 43.0 °F 71% 29.82 in 10.0 mi WNW 19.6 mph 33.4 mph N/A   Mostly Cloudy
4:05 PM 51.8 °F - 41.0 °F 67% 29.83 in 10.0 mi WNW 19.6 mph 33.4 mph N/A   Mostly Cloudy
4:23 PM 48.2 °F - 39.2 °F 71% 29.86 in 10.0 mi WNW 18.4 mph 31.1 mph N/A   Overcast
4:54 PM 46.0 °F 39.0 °F 37.0 °F 71% 29.90 in 10.0 mi WNW 17.3 mph 33.4 mph N/A   Overcast
5:44 PM 41.0 °F 32.2 °F 32.0 °F 70% 29.94 in 10.0 mi WNW 18.4 mph 26.5 mph N/A   Scattered Clouds
5:54 PM 39.9 °F 31.8 °F 30.9 °F 70% 29.96 in 10.0 mi WNW 15.0 mph 23.0 mph N/A   Partly Cloudy
6:19 PM 39.2 °F 32.0 °F 32.0 °F 75% 29.98 in 10.0 mi WNW 11.5 mph 21.9 mph N/A   Mostly Cloudy
6:54 PM 39.0 °F 30.3 °F 30.9 °F 73% 30.02 in 9.0 mi WNW 16.1 mph - N/A   Overcast
7:54 PM 37.0 °F 28.5 °F 30.9 °F 79% 30.05 in 8.0 mi WNW 13.8 mph 21.9 mph N/A   Overcast
8:54 PM 35.1 °F 25.5 °F 28.9 °F 78% 30.08 in 10.0 mi West 15.0 mph 23.0 mph N/A   Overcast
9:54 PM 35.1 °F 25.2 °F 28.0 °F 76% 30.12 in 10.0 mi West 16.1 mph 24.2 mph N/A   Overcast
10:17 PM 33.8 °F 25.3 °F 28.4 °F 81% 30.12 in 10.0 mi WNW 11.5 mph 20.7 mph N/A   Overcast
10:50 PM 33.8 °F 23.5 °F 26.6 °F 75% 30.13 in 10.0 mi WNW 16.1 mph 23.0 mph N/A   Overcast
10:54 PM 33.1 °F 22.6 °F 26.1 °F 75% 30.14 in 10.0 mi West 16.1 mph 23.0 mph N/A   Overcast
11:18 PM 33.8 °F 24.8 °F 24.8 °F 70% 30.14 in 10.0 mi WNW 12.7 mph 21.9 mph N/A   Overcast
11:54 PM 33.1 °F 23.9 °F 26.1 °F 75% 30.15 in 10.0 mi West 12.7 mph - N/A   Overcast